Simultaneous Nadir Overpasses (SNOs) Predictions

Prediction of SNOs between GOES-16 and NOAA-19 Satellite Orbit:

Table of predicted SNOs for the next 14.0 days since TLE Epoch: 12/21/2019
Index Date Time (GOES-16) GOES-16 Lat,Lon NOAA-19 Lat,Lon Distance(km) Time Diff (sec)
1 12/21/2019 22:23:40 -0.03, -75.19 0.21, -74.14 119.08 80
2 12/22/2019 22:12:00 -0.03, -75.19 0.86, -71.29 444.20 80
3 12/24/2019 10:44:42 0.03, -75.20 0.93, -79.12 447.89 80
4 12/25/2019 10:33:03 0.03, -75.20 0.27, -76.27 122.42 80
5 12/26/2019 10:18:44 0.03, -75.21 -0.39, -73.43 203.21 80
6 12/28/2019 22:41:50 -0.04, -75.22 -0.80, -78.41 365.12 41
7 12/29/2019 22:30:51 -0.04, -75.23 -0.10, -75.58 39.06 80
8 12/30/2019 22:16:31 -0.04, -75.24 0.55, -72.73 287.37 80
9 01/02/2020 10:40:12 0.04, -75.29 0.57, -77.70 274.65 80
10 01/03/2020 10:25:53 0.04, -75.30 -0.09, -74.85 52.46 80




NCC Satellite Simultaneous Nadir Overpasses (SNOs) Prediction Service
